Hourly Data Report for October 20, 2012

All times are specified in Local Standard Time (LST). Add 1 hour to adjust for Daylight Saving Time where and when it is observed.

KITCHENER/WATERLOO
ONTARIO

43°27'39.000" N
80°22'43.000" W
321.60 m
6144239
71368
YKF

Download Data

Hourly Data (October 2012)
Hourly Data Report for October 20, 2012
Temp Definition
°C
Dew Point Temp Definition
°C
Rel Hum Definition
%
Wind Dir Definition
10's deg

Wind Spd Definition
km/h
Visibility Definition
km
Stn Press Definition
kPa
Hmdx Definition


Wind Chill Definition


Weather Definition


TIME
00:00 Legend Double Dagger 8.5 8.1 97 17 5 6.4 96.47     LegendNANA
01:00 Legend Double Dagger 8.5 7.9 96 15 15 8.1 96.48     LegendNANA
02:00 Legend Double Dagger 8.0 7.3 95 17 9 12.9 96.47     LegendNANA
03:00 Legend Double Dagger 7.8 7.2 96 19 11 16.1 96.47     LegendNANA
04:00 Legend Double Dagger 7.5 6.6 94 20 9 16.1 96.46     LegendNANA
05:00 Legend Double Dagger 5.9 5.3 96 18 8 16.1 96.48     LegendNANA
06:00 Legend Double Dagger 6.0 5.6 97 17 8 14.5 96.49     LegendNANA
07:00 Legend Double Dagger 6.0 5.7 98 18 9 11.3 96.51     LegendNANA
08:00 Legend Double Dagger 6.9 6.5 97 19 13 16.1 96.54     LegendNANA
09:00 Legend Double Dagger 8.1 7.4 96 21 15 14.5 96.50     LegendNANA
10:00 Legend Double Dagger 8.4 6.4 87 22 17 16.1 96.53     LegendNANA
11:00 Legend Double Dagger 8.6 5.8 83 22 21 16.1 96.59     LegendNANA
12:00 Legend Double Dagger 8.5 6.5 87 22 17 16.1 96.59     LegendNANA
13:00 Legend Double Dagger 9.6 6.5 81 25 21 16.1 96.57     LegendNANA
14:00 Legend Double Dagger 10.4 6.5 77 27 18 16.1 96.57     LegendNANA
15:00 Legend Double Dagger 9.5 6.1 79 25 15 16.1 96.61     LegendNANA
16:00 Legend Double Dagger 9.4 5.6 77 25 22 16.1 96.66     LegendNANA
17:00 Legend Double Dagger 8.5 7.0 90 25 13 16.1 96.72     LegendNANA
18:00 Legend Double Dagger 7.7 5.8 88 29 24 16.1 96.80     LegendNANA
19:00 Legend Double Dagger 6.0 5.1 94 28 13 16.1 96.88     LegendNANA
20:00 Legend Double Dagger 6.2 5.6 96 27 13 16.1 96.95     LegendNANA
21:00 Legend Double Dagger 6.8 5.9 94 26 13 16.1 97.02     LegendNANA
22:00 Legend Double Dagger 7.2 6.5 95 27 13 16.1 97.09     LegendNANA
23:00 Legend Double Dagger 7.9 6.7 92 26 18 16.1 97.17     LegendNANA

Notes on Data Quality.

Legend

  • E = Estimated
  • M = Missing
  • NA = Not Available
  • ‡ = Partner data that is not subject to review by the National Climate Archives
Date modified: